FENGYUN 2H

Last updated on Jan. 25, 2020, 4:42 a.m. UTC

1 43491U 18050A   20024.64008280 -.00000136  00000-0  00000-0 0  9992
2 43491   0.9990 277.9226 0001240 249.4437 265.6448  1.00274278  6096
UTC
Height (km)
Latitude
Longitude
Inclination
Orbital Period
UTC large
Height (km)
Speed (km/s)
/
Latitude / Longitude
Inclination (degrees)
Orbital Period (minutes)
Azimuth
Elevation
Range (km)
Doppler Factor
iOS Compass Heading
iOS Angle

Next 30 passes for location: Hong Kong

Rise time Rise Azimuth (degrees) Set time Set Azimuth (degrees) Duration Max altitude (degrees)

No matching passes for this satellites